Location: ????? ?????????
(55.4900°N, 37.9200°E)
Time: 07:54:20
(UTC+00:00)

Daily predictions for brighter satellites

Satellite Brightness Start Highest point End
(mag) Time Altitude Azimuth Time Altitude Azimuth Time Altitude Azimuth
Cosmos 1980 4.1 18:21:23 10° SW 18:27:02 72° NW 18:32:43 10° NNE
Okean 3 Rocket 4.0 18:24:18 10° N 18:28:38 50° ENE 18:32:54 10° SSE
Cosmos 923 Rocket 4.0 18:24:02 10° SSW 18:29:20 73° ESE 18:34:41 10° NNE
Cosmos 1378 2.8 18:26:43 10° S 18:30:00 88° ESE 18:33:19 10° NNE
USA 234 3.5 18:23:37 10° E 18:30:12 79° N 18:36:45 10° W
SPOT 5 3.4 18:25:42 10° S 18:30:15 53° W 18:34:37 10° NNW
Cosmos 921 Rocket 3.9 18:26:30 10° SSE 18:30:30 33° ESE 18:34:32 10° NE
Cosmos 1943 4.5 18:31:48 10° SSE 18:36:00 22° ESE 18:40:11 10° NE
ARGOS Delta rocket 4.1 18:32:02 10° S 18:37:11 80° WSW 18:42:03 10° NNW
Landsat 5 4.4 18:35:38 10° NE 18:38:54 27° E 18:42:07 10° SSE
Landsat 4 3.8 18:35:49 10° S 18:39:18 65° WSW 18:42:48 10° NNW
USA 306 2.6 18:35:42 10° W 18:39:26 70° S 18:43:20 10° ESE
Cosmos 1656 Rocket 3.9 18:34:39 10° NW 18:40:03 66° WSW 18:45:28 10° SSE
ATLAS 2AS CENTAUR R/B 2.9 18:33:12 10° SW 18:40:34 89° NW 18:47:38 10° NE
Terra 2.0 18:36:27 10° S 18:41:10 74° WSW 18:45:54 10° NNW
Okean O Rocket 4.2 18:38:05 10° SW 18:41:12 18° W 18:44:20 10° NW
USA 59 Rocket 1.0 18:40:27 10° NW 18:43:34 35° NNE 18:47:27 10° E
Meteor 1-14 Rocket 4.4 18:38:21 10° NNW 18:44:11 86° ENE 18:50:06 10° SSE
NOSS 2-1 (E) 4.5 18:41:17 10° NW 18:44:24 36° NNE 18:48:19 10° E
ERS-1 Rocket 3.4 18:40:33 10° S 18:45:31 62° WSW 18:50:32 10° NNW
Meteor 1-11 Rocket 4.1 18:42:06 10° N 18:47:37 54° ENE 18:53:10 10° SSE
USA 281 3.3 18:41:16 10° SSE 18:47:53 81° WSW 18:54:32 10° NNW
SPOT 3 Rocket 3.7 18:44:21 10° SSE 18:49:30 80° WSW 18:54:41 10° NNW
Cosmos 1943 Rocket 4.3 18:47:22 10° NW 18:51:23 20° W 18:55:22 10° SW
Cosmos 1842 Rocket 4.0 18:48:12 10° SSE 18:52:26 45° E 18:56:40 10° NNE
Lacrosse 4 Rocket 3.5 18:49:29 10° NNW 18:52:38 22° NNE 18:55:50 10° ENE
H-2A R/B 4.3 18:51:21 10° ESE 18:54:32 22° ENE 18:57:48 10° N
NOSS 2-1 (D) 4.2 18:52:52 10° NW 18:56:04 41° NNE 19:00:05 10° E
USA 307 0.8 18:57:01 10° WSW 18:57:34 22° SW 18:57:34 22° SW
Cosmos 1331 Rocket 4.2 18:52:40 10° NNW 18:57:57 70° ENE 19:02:58 11° SE
Cosmos 1110 Rocket 4.1 18:54:23 10° NNW 18:59:44 77° ENE 19:04:49 11° SSE
Cosmos 2279 Rocket 4.0 18:53:42 10° N 18:59:57 81° E 19:06:09 10° SSE
Cosmos 1634 Rocket 4.2 18:54:27 10° NNW 19:00:47 74° W 19:07:00 10° S
Cosmos 1743 3.4 18:59:23 10° NNW 19:02:54 48° W 19:06:23 10° S
Cosmos 2297 4.5 18:58:08 10° NW 19:03:37 47° WSW 19:09:04 10° S
ARIANE 5 R/B 3.6 19:01:08 10° SE 19:05:06 36° ENE 19:09:04 10° N
USA 229 DEB 4.2 18:59:44 10° NW 19:06:53 62° SW 19:14:21 11° SSE
USA 229 4.2 18:59:49 10° NW 19:07:00 63° SW 19:14:28 11° SSE
USA 245 4.4 19:06:14 10° SW 19:07:53 18° W 19:09:32 10° NW
ISS -3.0 19:05:15 10° W 19:08:20 35° SSW 19:10:59 13° SE
Cosmos 1340 Rocket 4.4 19:06:59 11° SE 19:09:36 20° E 19:12:33 10° NE
Cosmos 2112 Rocket 4.1 19:06:25 10° SSW 19:11:46 86° WNW 19:17:06 10° NNE
Spot 2 Rocket 4.4 19:15:01 10° S 19:19:47 43° W 19:24:36 10° NNW
Cosmos 1680 Rocket 4.0 19:16:50 10° SW 19:22:06 66° WNW 19:27:22 10° NNE
Cosmos 1726 2.1 19:20:15 10° NNW 19:23:22 59° W 19:26:04 13° S
Meteor 2-6 Rocket 4.2 19:18:22 10° SSW 19:23:59 86° WNW 19:29:31 10° NNE
Cosmos 1805 4.1 19:24:55 10° N 19:28:23 35° ENE 19:31:06 14° SE
Cosmos 1743 Rocket 3.7 19:25:52 10° N 19:30:15 68° ENE 19:33:46 15° SSE
NOSS 2-1 (C) 3.6 19:27:56 10° NW 19:31:20 62° NE 19:35:46 10° ESE
Kosmos-1783 3.5 19:30:33 10° W 19:32:00 37° NNW 19:34:03 10° NE
Sich 1 3.0 19:31:15 10° N 19:35:38 80° E 19:39:07 16° SSE
SL-16 R/B 2.5 19:30:19 10° SW 19:35:59 71° NW 19:41:43 10° NNE
MetOp-A 4.3 19:33:25 11° S 19:37:32 53° W 19:42:15 10° NNW
Cosmos 1603 4.3 19:33:53 13° S 19:38:31 38° ESE 19:43:44 10° NE
Lacrosse 5 4.1 19:38:16 10° W 19:40:22 13° WSW 19:42:28 10° SSW
Cosmos 1452 Rocket 3.9 19:37:01 10° NNW 19:42:09 56° WSW 19:46:28 14° S
Ariane Rocket 4.5 19:37:56 10° SSW 19:42:23 30° W 19:46:53 10° NNW
Cosmos 1536 3.3 19:39:56 10° NNW 19:43:43 53° W 19:46:58 14° S
Cosmos 1975 3.6 19:40:15 10° N 19:44:01 41° ENE 19:46:47 16° SE
Spot 1 4.2 19:40:33 10° NNE 19:44:37 70° WNW 19:48:40 10° SSW
Meteor 1-27 Rocket 3.8 19:39:56 13° S 19:44:42 59° E 19:50:09 10° NNE
Cosmos 1408 Rocket 4.0 19:40:58 10° NNW 19:45:20 57° W 19:49:10 13° S
Cosmos 2369 Rocket 3.5 19:40:51 10° NW 19:45:43 31° WSW 19:50:35 10° SSW
Lacrosse 5 rocket 1.3 19:44:41 10° WSW 19:48:59 83° SSE 19:53:09 10° ENE
Cosmos 1340 2.3 19:49:47 10° NNW 19:53:13 90° WSW 19:55:25 21° SSE
Cosmos 2221 4.4 19:49:41 10° SW 19:53:28 29° WNW 19:57:16 10° N
PSLV R/B 4.5 19:50:01 10° NNE 19:53:54 41° E 19:56:27 19° SSE
Okean 1 3.2 19:50:57 15° S 19:54:07 85° E 19:58:01 10° NNE
Cosmos 1626 3.6 19:59:00 15° ESE 20:00:17 19° E 20:02:40 10° NE
GEOS 3 Rocket 3.7 19:57:52 10° NE 20:03:07 81° NW 20:08:16 10° SW
Cosmos 2237 Rocket 4.5 19:58:53 10° W 20:03:47 28° NNW 20:08:41 10° NNE
BREEZE-M DEB (TANK) 3.5 20:02:08 10° SW 20:07:54 - ESE 20:02:58 17° SSW
Cosmos 921 Rocket 4.3 20:04:20 10° SW 20:08:37 43° WNW 20:12:56 10° NNE
Meteor 2-17 Rocket 4.4 20:06:28 14° S 20:11:48 84° E 20:17:53 10° NNE
USA 306 3.2 20:09:21 10° W 20:12:59 39° SSW 20:15:01 22° SSE
USA 234 3.2 20:06:41 10° ESE 20:13:16 81° SSW 20:19:52 10° WNW
Cosmos 1943 3.2 20:13:39 10° SSW 20:19:21 89° WNW 20:25:04 10° NE
Terra 4.3 20:17:20 10° WSW 20:19:36 13° W 20:21:52 10° NW
Cosmos 1328 Rocket 4.2 20:19:15 20° SSE 20:21:47 40° E 20:25:51 10° NNE
Meteor 2-4 Rocket 4.1 20:18:25 18° S 20:22:41 57° E 20:28:30 10° NNE
Spot 4 3.8 20:19:23 20° SSE 20:22:42 85° ENE 20:27:31 10° NNW
Cosmos 1733 4.2 20:20:39 10° NNW 20:23:53 34° W 20:26:10 16° SSW
IRIDIUM 104 4.4 20:18:39 10° N 20:23:55 81° W 20:27:45 19° S
ALOS 2 2.8 20:21:27 20° SSE 20:24:26 66° ENE 20:28:49 10° N
Cosmos 1470 Rocket 4.1 20:20:15 10° N 20:24:39 52° ENE 20:27:38 19° SE
Cosmos 1048 Rocket 4.3 20:20:13 10° SW 20:25:21 67° WNW 20:30:29 10° NNE
H-2A R/B 2.6 20:26:30 21° S 20:29:07 64° WSW 20:33:20 10° NNW
Cosmos 1092 Rocket 4.1 20:25:48 18° S 20:30:32 70° E 20:36:50 10° NNE
Lacrosse 4 Rocket 1.5 20:27:31 10° NW 20:31:35 72° NE 20:34:40 17° SE
ATLAS 2AS CENTAUR R/B 3.9 20:25:13 10° W 20:32:11 48° NNW 20:38:52 10° ENE
Cosmos 1428 Rocket 4.4 20:27:23 16° S 20:32:20 86° E 20:38:30 10° NNE
IRIDIUM 114 4.5 20:27:50 10° N 20:33:03 70° W 20:36:53 18° S
USA 59 Rocket 0.1 20:29:46 10° WNW 20:33:22 58° SW 20:36:26 20° SSE
Cosmos 1656 3.6 20:27:57 10° NNW 20:33:26 85° NE 20:37:39 18° SE
Cosmos 1302 Rocket 4.5 20:28:37 10° NW 20:33:38 49° WSW 20:37:02 20° S
NOSS 2-1 (E) 3.6 20:30:37 10° WNW 20:34:14 57° SW 20:37:17 20° SSE
Cosmos 1666 Rocket 3.5 20:30:16 10° NNW 20:34:36 77° W 20:37:19 22° S
Cosmos 1151 Rocket 3.1 20:31:54 18° SSW 20:35:09 76° WNW 20:39:32 10° N
Cosmos 1633 Rocket 3.0 20:33:56 10° NNW 20:38:23 84° WSW 20:41:08 23° S
ARIANE 5 R/B 3.6 20:38:36 17° SSW 20:41:31 36° W 20:45:32 10° NNW
Cosmos 1992 Rocket 4.0 20:36:58 10° NNW 20:42:12 75° WSW 20:45:43 21° SSE
Cosmos 1697 Rocket 3.3 20:38:22 10° NNW 20:43:55 55° NE 20:49:26 10° SE
ISS -1.7 20:42:23 10° WSW 20:43:45 14° SW 20:43:45 14° SW
Cosmos 1340 Rocket 3.4 20:42:10 15° SSW 20:45:20 54° WNW 20:49:18 10° N
CZ-2C R/B 4.1 20:40:53 10° N 20:45:24 60° WNW 20:49:14 14° SW
NOSS 2-1 (D) 3.8 20:42:17 10° WNW 20:45:48 45° SW 20:48:21 23° SSE
H-2A R/B 3.4 20:42:53 10° NE 20:46:46 28° E 20:49:05 18° SE
Cosmos 2195 Rocket 4.5 20:43:01 17° SSW 20:47:57 82° WNW 20:54:07 10° N
Cosmos 1980 Rocket 3.5 20:43:54 10° NNW 20:49:14 38° NE 20:54:32 10° ESE
Cosmos 1933 Rocket 4.1 20:45:51 10° N 20:50:05 49° ENE 20:52:58 19° SE
Cosmos 614 Rocket 4.1 20:47:59 20° S 20:51:27 61° ESE 20:56:37 10° NNE
Cosmos 1908 4.3 20:49:35 10° N 20:52:51 32° ENE 20:55:06 17° SE
Cosmos 1766 3.1 20:50:33 10° NNW 20:54:18 88° W 20:56:16 27° S
Cosmos 1470 3.1 20:54:27 10° N 20:58:08 52° ENE 21:00:14 22° SE
Cosmos 1707 4.0 21:00:02 19° SE 21:01:44 27° E 21:04:53 10° NNE
Cosmos 2360 4.2 21:03:58 10° NW 21:09:43 86° WSW 21:14:09 18° SSE
SL-16 R/B 4.5 21:09:56 10° NNW 21:14:36 25° NNE 21:19:14 10° E
USA 267 3.5 21:11:21 10° ENE 21:17:39 48° SE 21:23:24 13° SW
Cosmos 1975 4.4 21:16:28 10° NNW 21:19:44 25° W 21:21:58 15° SW
SL-16 R/B 4.4 21:16:23 10° W 21:21:05 26° NNW 21:25:48 10° NNE
Cosmos 1603 4.3 21:16:53 10° SW 21:22:29 56° NW 21:28:09 10° NNE
Orbus 7S? 4.4 21:24:43 20° SE 21:24:43 20° SE 21:26:31 10° E
NOSS 3-4 (A) 3.8 21:20:57 10° NW 21:27:29 83° NE 21:35:06 10° SE
Lacrosse 5 rocket 1.6 21:23:15 10° W 21:27:30 70° N 21:31:35 10° E
NOSS 3-4 (C) 3.8 21:21:00 10° NW 21:27:32 83° NE 21:35:10 10° SE
Cosmos 1269 Rocket 4.1 21:24:14 22° S 21:27:37 65° ESE 21:32:51 10° NNE
Helios 1A Rocket 4.3 21:24:57 11° SE 21:28:18 32° ENE 21:31:46 10° N
Cosmos 2082 Rocket 4.3 21:27:37 10° SE 21:30:33 14° E 21:33:30 10° ENE
PSLV R/B 3.7 21:28:55 10° NNE 21:33:36 83° ESE 21:36:22 23° SSW
Cosmos 1626 2.9 21:31:50 20° SW 21:33:39 37° WNW 21:36:43 10° N
Cosmos 1674 2.4 21:34:14 29° S 21:35:53 87° ESE 21:39:24 10° NNE
Meteor 2-10 Rocket 4.3 21:30:19 10° N 21:36:02 55° ENE 21:41:12 13° SE
Cosmos 2315 Rocket 4.2 21:31:29 10° N 21:37:46 72° ENE 21:42:48 17° SSE
Cosmos 1833 Rocket 3.3 21:35:30 21° S 21:38:50 43° ESE 21:44:07 10° NE
S3M 4.1 21:32:41 10° NNW 21:39:05 85° W 21:43:47 20° S
NOSS 3-3 (C) 4.2 21:38:41 21° S 21:42:13 48° SE 21:48:30 10° NE
Cosmos 1300 3.8 21:39:33 10° N 21:42:54 35° ENE 21:45:31 15° SE
Cosmos 44 Rocket 3.2 21:38:06 10° NW 21:43:08 79° SW 21:47:31 13° SE
BREEZE-M DEB (TANK) 4.0 21:33:17 10° SW 21:44:39 39° S 21:48:22 10° ESE
SL-24 R/B 4.3 21:42:06 10° NNE 21:46:29 76° WNW 21:49:34 21° SSW
GP-B 3.1 21:51:25 10° N 21:55:52 87° E 21:58:36 23° S
Cosmos 1763 Rocket 3.8 21:50:47 10° NNW 21:56:06 70° ENE 22:01:24 10° SE
USA 234 3.7 21:51:34 14° SSE 21:56:51 41° SW 22:03:00 10° WNW
Cosmos 1515 Rocket 3.9 21:54:34 21° SSW 21:57:21 56° WNW 22:01:38 10° N
CZ-2D R/B 4.5 21:56:03 10° NE 21:59:00 14° E 22:01:54 10° ESE
SL-8 R/B 4.2 21:56:10 10° WSW 22:00:31 36° S 22:04:53 10° ESE
ALOS 2 4.4 21:58:50 14° SW 22:01:12 20° W 22:04:30 10° NW
Cosmos 1400 Rocket 4.0 21:59:47 17° SSE 22:02:14 33° E 22:05:52 10° NNE
Meteor 1-13 Rocket 4.4 21:58:56 20° S 22:03:09 79° E 22:09:05 10° NNE
Cosmos 1869 Rocket 3.7 21:59:04 10° NNW 22:03:21 60° W 22:05:54 23° S
NOSS 8 (A) 4.3 22:01:58 16° WSW 22:04:34 76° NW 22:07:30 10° NE
Cosmos 1733 Rocket 3.3 22:02:19 10° N 22:06:38 64° ENE 22:09:57 17° SSE
Lacrosse 4 Rocket 2.9 22:06:27 10° WNW 22:09:28 20° WSW 22:10:34 18° SW
Cosmos 1655 Rocket 4.1 22:07:35 19° S 22:12:17 80° E 22:18:42 10° NNE
Aureole 3 4.4 22:10:46 15° SE 22:12:26 23° E 22:14:53 10° NE
Cosmos 2322 Rocket 4.0 22:11:57 10° NNW 22:17:02 33° NE 22:22:08 10° E
Cosmos 1818 3.6 22:13:02 17° SW 22:17:15 77° SE 22:22:46 10° NE
Cosmos 1346 Rocket 3.4 22:13:48 10° N 22:17:36 52° ENE 22:20:56 13° SSE
H-2A R/B 2.8 22:18:22 10° N 22:22:40 48° WNW 22:25:53 17° SW
USA 59 Rocket 2.2 22:21:01 10° W 22:22:43 12° WSW 22:22:59 12° SW
Cosmos 540 Rocket 3.5 22:18:48 10° NNW 22:24:00 82° ENE 22:29:11 10° SSE
Resurs 1-4 Rocket 4.0 22:20:09 10° NE 22:24:09 21° E 22:28:06 10° SE
Meteor 1-15 Rocket 4.4 22:18:42 10° NNW 22:24:18 58° W 22:28:18 19° S
ATLAS 2AS CENTAUR R/B 3.9 22:17:36 10° WNW 22:24:24 46° NNE 22:30:55 10° E
Cosmos 1842 4.3 22:22:35 17° SW 22:24:55 33° WNW 22:28:20 10° N
Meteor 1-12 Rocket 4.4 22:19:42 10° NNW 22:25:31 70° W 22:30:07 17° S
Cosmos 1908 4.4 22:24:39 10° NNW 22:27:41 26° W 22:29:18 19° SW
Cosmos 1697 Rocket 3.3 22:22:34 10° NW 22:27:46 39° WSW 22:31:17 19° SSW
APEX 1.8 22:28:03 40° SW 22:28:39 70° NW 22:30:50 10° NNE
OPS 6432 4.0 22:25:26 10° NW 22:28:41 84° SW 22:31:46 10° SE
Cosmos 1441 Rocket 3.8 22:25:41 10° NNW 22:29:03 37° W 22:30:46 23° SSW
CZ-2C R/B 3.8 22:25:11 10° SE 22:29:59 41° ENE 22:34:49 10° N
SL-14 R/B 3.5 22:27:37 21° S 22:30:06 61° E 22:33:55 10° NNE
Cosmos 1953 3.5 22:27:13 10° N 22:30:57 39° ENE 22:34:38 10° SE
Cosmos 1980 Rocket 2.3 22:27:55 10° NW 22:33:35 64° WSW 22:38:51 12° SSE
COSMOS 2406 4.4 22:30:09 13° SSE 22:34:27 32° ESE 22:39:31 10° NE
Cosmos 1707 3.8 22:34:21 16° SW 22:36:41 32° WNW 22:40:02 10° N
Cosmos 2369 3.7 22:31:29 10° NW 22:37:12 74° WSW 22:42:54 10° SSE
Cosmos 2266 Rocket 4.4 22:35:15 16° SW 22:40:04 54° WNW 22:46:13 10° N
SL-16 R/B 3.9 22:35:13 10° ESE 22:40:56 39° NE 22:46:40 10° N
Cosmos 1758 3.5 22:37:56 10° NNW 22:41:41 52° W 22:44:00 21° SSW
Cosmos 1862 Rocket 3.7 22:38:55 18° S 22:42:01 67° E 22:46:20 10° NNE
Meteor 1-16 Rocket 4.3 22:37:33 10° NNW 22:43:10 83° ENE 22:48:55 10° SSE
Cosmos 1607 4.2 22:39:11 17° SSW 22:44:11 63° SE 22:50:36 10° NE
Meteor 1-21 4.4 22:45:11 16° S 22:49:46 74° E 22:55:30 10° NNE
SL-16 R/B 2.6 22:54:02 10° NNW 22:59:44 68° NE 23:05:23 10° SE
Cosmos 1455 2.4 22:57:26 10° N 23:00:52 60° ENE 23:04:17 10° SSE
USA 267 3.3 22:54:31 10° ENE 23:01:06 88° SSE 23:07:40 10° WSW
Helios 1A Rocket 3.7 23:00:20 18° SSW 23:02:38 34° W 23:06:12 10° NNW
Cosmos 1315 Rocket 4.2 23:00:57 10° SSE 23:04:24 32° E 23:07:55 10° NNE
Cosmos 2228 Rocket 3.3 23:01:24 17° SSW 23:04:43 60° WNW 23:09:11 10° N
H-2A R/B 4.2 23:01:00 10° NNE 23:04:51 43° E 23:08:22 12° S
NOSS 3-3 (A) 4.2 22:59:57 10° WSW 23:05:45 75° NNW 23:12:42 10° NE
Lacrosse 5 rocket 1.2 23:01:48 10° WNW 23:05:57 74° SSW 23:09:56 10° ESE
Cosmos 1707 Rocket 3.7 23:03:45 17° SSW 23:07:05 64° WNW 23:11:32 10° N
Cosmos 841 Rocket 3.5 23:04:29 10° NNW 23:09:45 89° ENE 23:15:01 10° SSE
Cosmos 1140 Rocket 4.0 23:05:26 13° SW 23:10:01 53° NW 23:15:11 10° NNE
Cosmos 2251 Rocket 3.6 23:05:57 15° SW 23:10:18 75° WNW 23:15:37 10° NNE
Meteor 1-4 Rocket 3.4 23:09:09 11° SSE 23:11:38 32° E 23:14:21 10° NNE
Cosmos 2237 4.3 23:06:59 10° NW 23:12:46 87° NE 23:18:31 10° SE
Cosmos 2082 Rocket 2.4 23:08:47 15° SSW 23:13:34 65° ESE 23:19:15 10° NE
Cosmos 676 Rocket 4.4 23:12:40 13° S 23:17:16 58° ESE 23:22:31 10° NNE
Cosmos 1300 4.0 23:14:36 10° NW 23:17:32 24° W 23:19:33 15° SW
NOSS 3-4 (A) 4.4 23:11:58 10° WNW 23:18:06 37° WSW 23:25:03 10° S
NOSS 3-4 (C) 4.4 23:12:01 10° WNW 23:18:10 37° WSW 23:25:08 10° S
Cosmos 2219 Rocket 3.9 23:13:55 10° NNW 23:19:08 37° NE 23:24:22 10° ESE
ADEOS II 3.3 23:14:42 10° NNE 23:19:32 36° E 23:24:20 10° SSE
Cosmos 1833 Rocket 3.3 23:17:18 10° WSW 23:22:45 50° NW 23:28:14 10° NNE
Cosmos 468 Rocket 4.5 23:17:58 10° NW 23:22:59 43° WSW 23:27:56 10° S
Cosmos 407 Rocket 3.9 23:18:38 13° SW 23:23:20 59° WNW 23:28:33 10° NNE
Cosmos 1954 Rocket 4.1 23:20:53 14° SSW 23:25:32 77° ESE 23:30:53 10° NNE
Cosmos 2360 Rocket 2.9 23:20:32 10° NNW 23:26:11 58° NE 23:31:47 10° SE
Cosmos 1190 Rocket 4.1 23:21:55 14° SSW 23:26:30 85° WNW 23:31:52 10° NNE
MOZ.5/SAFIR/RUBIN 5/SL-8 4.3 23:24:18 13° SSW 23:28:15 42° W 23:32:45 10° NNW
Cosmos 1782 Rocket 3.7 23:24:31 10° N 23:28:57 78° ENE 23:33:19 10° SSE
IDEFIX/ARIANE 42P 2.7 23:24:51 10° NNE 23:30:08 75° ESE 23:35:21 10° S
Cosmos 1908 Rocket 3.7 23:25:45 10° NNW 23:30:10 61° W 23:34:31 10° S
Okean 1-7 3.0 23:26:56 13° SSW 23:30:44 83° WNW 23:35:04 10° N
Okean 2 3.3 23:28:57 13° SSW 23:32:29 86° WNW 23:36:29 10° NNE
NOSS 3-3 (C) 4.4 23:27:12 10° WSW 23:33:02 63° NNW 23:40:02 10° NE
SJ 16-02 3.8 23:31:35 10° SE 23:34:14 16° E 23:36:54 10° ENE
CZ-2C R/B 3.9 23:31:13 10° NNE 23:36:56 55° E 23:42:37 10° S
Cosmos 1400 Rocket 4.0 23:34:57 12° SW 23:38:17 32° WNW 23:41:55 10° N
Cosmos 1408 4.2 23:36:54 10° SE 23:39:21 23° E 23:41:48 10° NE
Cosmos 1745 Rocket 4.1 23:33:29 10° S 23:39:41 84° E 23:46:01 10° NNE
Cosmos 2278 3.8 23:34:18 10° NW 23:39:56 60° WSW 23:45:32 10° SSE
CZ-2D R/B 2.5 23:34:32 10° NNE 23:40:03 69° ESE 23:45:29 10° S
ALOS 3.8 23:37:43 10° NNE 23:41:51 31° E 23:45:56 10° SSE
Cosmos 2333 Rocket 2.6 23:42:07 10° NNW 23:47:50 71° NE 23:53:33 10° SE
COBE Rocket 3.9 23:44:26 10° N 23:49:14 75° WNW 23:54:09 10° SSW
Cosmos 1346 Rocket 4.4 23:50:18 10° NW 23:53:09 20° W 23:55:56 10° SW
Aureole 3 4.3 23:50:44 10° WSW 23:53:09 22° WNW 23:55:34 10° NNW
FENGYUN 3A 4.2 23:47:59 10° NNE 23:53:20 58° ESE 23:58:37 10° S
Okean 3 4.4 23:50:23 11° SW 23:54:02 35° WNW 23:57:50 10° N
Cosmos 2242 Rocket 4.4 23:50:18 10° S 23:54:35 51° E 23:58:57 10° NNE
